"read_dt","SO2 (ppb)","flags","PMT voltage (V)","lamp voltage (V)","lamp intensity (Hz)","internal temp (C)","react chamber temp (C)","sample flow (l/min)","pres (mmHg)","SO2 bkg (ppb)","SO2 coefficient"
2016-04-23 00:00:00,1819E-3,5C000400,-0724,0835,12285,024.2,045.3,0.262,767.5,01.15,0.508
2016-04-23 00:01:00,1761E-3,5C000400,-0724,0835,12232,024.2,045.3,0.262,767.5,01.15,0.508
2016-04-23 00:02:00,1907E-3,5C000400,-0724,0835,12184,024.2,045.3,0.262,767.5,01.15,0.508
2016-04-23 00:03:00,1878E-3,5C000400,-0724,0834,12077,024.2,045.3,0.262,767.5,01.15,0.508
2016-04-23 00:04:00,1705E-3,5C000400,-0724,0835,12269,024.2,045.3,0.262,767.5,01.15,0.508
2016-04-23 00:05:00,1809E-3,5C000400,-0724,0834,12190,024.2,045.3,0.262,767.5,01.15,0.508
2016-04-23 00:06:00,1854E-3,5C000400,-0724,0835,12145,024.2,045.3,0.262,767.5,01.15,0.508
2016-04-23 00:07:00,1823E-3,5C000400,-0724,0835,12098,024.2,045.3,0.262,767.5,01.15,0.508
2016-04-23 00:08:00,1705E-3,5C000400,-0724,0834,12216,024.2,045.3,0.263,767.5,01.15,0.508
2016-04-23 00:09:00,1827E-3,5C000400,-0724,0835,12061,024.2,045.3,0.262,767.5,01.15,0.508
2016-04-23 00:10:00,1741E-3,5C000400,-0724,0835,12174,024.2,045.3,0.263,767.5,01.15,0.508
2016-04-23 00:11:00,2023E-3,5C000400,-0724,0834,12188,024.2,045.3,0.262,767.5,01.15,0.508
2016-04-23 00:12:00,1771E-3,5C000400,-0724,0835,12122,024.2,045.3,0.262,767.5,01.15,0.508
2016-04-23 00:13:00,1857E-3,5C000400,-0724,0833,12139,024.2,045.3,0.262,767.5,01.15,0.508
2016-04-23 00:14:00,1813E-3,5C000400,-0724,0834,12088,024.2,045.3,0.262,767.5,01.15,0.508
2016-04-23 00:15:00,1718E-3,5C000400,-0724,0834,12067,024.2,045.3,0.262,767.5,01.15,0.508
2016-04-23 00:16:00,1803E-3,5C000400,-0724,0834,12158,024.3,045.3,0.262,767.5,01.15,0.508
2016-04-23 00:17:00,1800E-3,5C000400,-0724,0834,12107,024.2,045.3,0.262,767.5,01.15,0.508
2016-04-23 00:18:00,1772E-3,5C000400,-0724,0835,12160,024.2,045.3,0.262,767.5,01.15,0.508
2016-04-23 00:19:00,1796E-3,5C000400,-0724,0835,12273,024.2,045.3,0.262,767.5,01.15,0.508
2016-04-23 00:20:00,1816E-3,5C000400,-0724,0834,12139,024.3,045.3,0.262,767.4,01.15,0.508
2016-04-23 00:21:00,1877E-3,5C000400,-0724,0835,12005,024.3,045.3,0.262,767.4,01.15,0.508
2016-04-23 00:22:00,1882E-3,5C000400,-0724,0834,12200,024.3,045.3,0.262,767.4,01.15,0.508
2016-04-23 00:23:00,1776E-3,5C000400,-0724,0834,12170,024.3,045.3,0.262,767.4,01.15,0.508
2016-04-23 00:24:00,1801E-3,5C000400,-0724,0834,12186,024.3,045.3,0.262,767.4,01.15,0.508
2016-04-23 00:25:00,1856E-3,5C000400,-0724,0835,12147,024.3,045.3,0.262,767.4,01.15,0.508
2016-04-23 00:26:00,1874E-3,5C000400,-0724,0834,12017,024.3,045.3,0.262,767.4,01.15,0.508
2016-04-23 00:27:00,1731E-3,5C000400,-0724,0834,12185,024.3,045.3,0.262,767.4,01.15,0.508
2016-04-23 00:28:00,1714E-3,5C000400,-0724,0835,12194,024.3,045.3,0.261,767.4,01.15,0.508
2016-04-23 00:29:00,1899E-3,5C000400,-0724,0834,12135,024.3,045.4,0.262,767.4,01.15,0.508
2016-04-23 00:30:00,1850E-3,5C000400,-0724,0834,12109,024.3,045.3,0.262,767.4,01.15,0.508
2016-04-23 00:31:00,1690E-3,5C000400,-0724,0835,12169,024.3,045.3,0.262,767.4,01.15,0.508
2016-04-23 00:32:00,1852E-3,5C000400,-0724,0834,12152,024.4,045.4,0.262,767.4,01.15,0.508
2016-04-23 00:33:00,1797E-3,5C000400,-0724,0835,12157,024.3,045.3,0.261,767.4,01.15,0.508
2016-04-23 00:34:00,1874E-3,5C000400,-0724,0834,12208,024.4,045.3,0.262,767.4,01.15,0.508
2016-04-23 00:35:00,1729E-3,5C000400,-0724,0834,12095,024.4,045.3,0.262,767.4,01.15,0.508
2016-04-23 00:36:00,1755E-3,5C000400,-0724,0835,12261,024.4,045.3,0.262,767.4,01.15,0.508
2016-04-23 00:37:00,1852E-3,5C000400,-0724,0834,12202,024.4,045.3,0.262,767.4,01.15,0.508
2016-04-23 00:38:00,1771E-3,5C000400,-0724,0835,12187,024.4,045.3,0.261,767.5,01.15,0.508
2016-04-23 00:39:00,1931E-3,5C000400,-0724,0834,12125,024.4,045.3,0.262,767.5,01.15,0.508
2016-04-23 00:40:00,1810E-3,5C000400,-0724,0835,12119,024.4,045.3,0.262,767.5,01.15,0.508
2016-04-23 00:41:00,1686E-3,5C000400,-0724,0835,12104,024.4,045.3,0.262,767.5,01.15,0.508
2016-04-23 00:42:00,1859E-3,5C000400,-0724,0834,12009,024.4,045.3,0.262,767.5,01.15,0.508
2016-04-23 00:43:00,1890E-3,5C000400,-0724,0835,12090,024.4,045.3,0.261,767.5,01.15,0.508
2016-04-23 00:44:00,1840E-3,5C000400,-0724,0835,12115,024.4,045.3,0.262,767.5,01.15,0.508
2016-04-23 00:45:00,1760E-3,5C000400,-0724,0834,12141,024.5,045.3,0.262,767.5,01.15,0.508
2016-04-23 00:46:00,1922E-3,5C000400,-0724,0834,12182,024.5,045.3,0.262,767.5,01.15,0.508
2016-04-23 00:47:00,1913E-3,5C000400,-0724,0835,12129,024.5,045.3,0.262,767.5,01.15,0.508
2016-04-23 00:48:00,1839E-3,5C000400,-0724,0835,12062,024.5,045.3,0.261,767.5,01.15,0.508
2016-04-23 00:49:00,1786E-3,5C000400,-0724,0834,12178,024.5,045.3,0.262,767.5,01.15,0.508
2016-04-23 00:50:00,1788E-3,5C000400,-0724,0836,12132,024.5,045.3,0.262,767.5,01.15,0.508
2016-04-23 00:51:00,1832E-3,5C000400,-0724,0834,12079,024.5,045.3,0.261,767.5,01.15,0.508
2016-04-23 00:52:00,1833E-3,5C000400,-0724,0834,12289,024.5,045.3,0.262,767.5,01.15,0.508
2016-04-23 00:53:00,1893E-3,5C000400,-0724,0835,12016,024.5,045.3,0.261,767.5,01.15,0.508
2016-04-23 00:54:00,1722E-3,5C000400,-0724,0834,12170,024.5,045.3,0.262,767.5,01.15,0.508
2016-04-23 00:55:00,1875E-3,5C000400,-0724,0835,12055,024.5,045.3,0.262,767.5,01.15,0.508
2016-04-23 00:56:00,1833E-3,5C000400,-0724,0835,12146,024.6,045.3,0.261,767.5,01.15,0.508
2016-04-23 00:57:00,1823E-3,5C000400,-0724,0834,12208,024.5,045.3,0.262,767.5,01.15,0.508
2016-04-23 00:58:00,1790E-3,5C000400,-0724,0834,12096,024.6,045.3,0.261,767.5,01.15,0.508
2016-04-23 00:59:00,1687E-3,5C000400,-0724,0835,12174,024.6,045.3,0.262,767.5,01.15,0.508
2016-04-23 01:00:00,1843E-3,5C000400,-0724,0834,12152,024.6,045.3,0.262,767.5,01.15,0.508
2016-04-23 01:01:00,1861E-3,5C000400,-0724,0834,12090,024.6,045.3,0.261,767.5,01.15,0.508
2016-04-23 01:02:00,1821E-3,5C000400,-0724,0835,12213,024.6,045.3,0.262,767.5,01.15,0.508
2016-04-23 01:03:00,1651E-3,5C000400,-0724,0835,12146,024.6,045.3,0.262,767.5,01.15,0.508
2016-04-23 01:04:00,1717E-3,5C000400,-0724,0835,12171,024.6,045.3,0.261,767.5,01.15,0.508
2016-04-23 01:05:00,1910E-3,5C000400,-0724,0835,12099,024.6,045.3,0.262,767.5,01.15,0.508
2016-04-23 01:06:00,1798E-3,5C000400,-0724,0835,12053,024.6,045.3,0.261,767.5,01.15,0.508
2016-04-23 01:07:00,1842E-3,5C000400,-0724,0835,12110,024.7,045.3,0.262,767.5,01.15,0.508
2016-04-23 01:08:00,1799E-3,5C000400,-0724,0834,12187,024.7,045.3,0.262,767.5,01.15,0.508
2016-04-23 01:09:00,1727E-3,5C000400,-0724,0834,12031,024.7,045.3,0.262,767.5,01.15,0.508
2016-04-23 01:10:00,1801E-3,5C000400,-0724,0834,12045,024.7,045.3,0.262,767.5,01.15,0.508
2016-04-23 01:11:00,1827E-3,5C000400,-0724,0835,12141,024.7,045.4,0.261,767.5,01.15,0.508
2016-04-23 01:12:00,1791E-3,5C000400,-0724,0835,12167,024.7,045.3,0.261,767.5,01.15,0.508
2016-04-23 01:13:00,1715E-3,5C000400,-0724,0835,12067,024.7,045.3,0.261,767.5,01.15,0.508
2016-04-23 01:14:00,1847E-3,5C000400,-0724,0834,12218,024.7,045.3,0.261,767.5,01.15,0.508
2016-04-23 01:15:00,1835E-3,5C000400,-0724,0835,12183,024.7,045.3,0.261,767.5,01.15,0.508
2016-04-23 01:16:00,1854E-3,5C000400,-0724,0834,12186,024.7,045.3,0.261,767.5,01.15,0.508
2016-04-23 01:17:00,1840E-3,5C000400,-0724,0834,12117,024.7,045.3,0.261,767.5,01.15,0.508
2016-04-23 01:18:00,1832E-3,5C000400,-0724,0835,12240,024.8,045.4,0.261,767.5,01.15,0.508
2016-04-23 01:19:00,1814E-3,5C000400,-0724,0835,12123,024.8,045.3,0.261,767.5,01.15,0.508
2016-04-23 01:20:00,1828E-3,5C000400,-0724,0834,12124,024.8,045.3,0.261,767.5,01.15,0.508
2016-04-23 01:21:00,1914E-3,5C000400,-0724,0835,12153,024.8,045.3,0.261,767.5,01.15,0.508
2016-04-23 01:22:00,1832E-3,5C000400,-0724,0835,12246,024.8,045.3,0.261,767.5,01.15,0.508
2016-04-23 01:23:00,1847E-3,5C000400,-0724,0835,12251,024.8,045.3,0.261,767.6,01.15,0.508
2016-04-23 01:24:00,1804E-3,5C000400,-0724,0835,12202,024.8,045.3,0.261,767.6,01.15,0.508
2016-04-23 01:25:00,1798E-3,5C000400,-0724,0835,12114,024.8,045.3,0.261,767.6,01.15,0.508
2016-04-23 01:26:00,1836E-3,5C000400,-0724,0835,12105,024.8,045.3,0.261,767.6,01.15,0.508
2016-04-23 01:27:00,1731E-3,5C000400,-0724,0835,12254,024.8,045.3,0.261,767.6,01.15,0.508
2016-04-23 01:28:00,1841E-3,5C000400,-0724,0834,12043,024.8,045.3,0.261,767.6,01.15,0.508
2016-04-23 01:29:00,1813E-3,5C000400,-0724,0835,12065,024.9,045.3,0.261,767.6,01.15,0.508
2016-04-23 01:30:00,1808E-3,5C000400,-0724,0835,12166,024.9,045.3,0.261,767.6,01.15,0.508
2016-04-23 01:31:00,1772E-3,5C000400,-0724,0835,12246,024.9,045.3,0.261,767.6,01.15,0.508
2016-04-23 01:32:00,1876E-3,5C000400,-0724,0834,12206,024.9,045.4,0.261,767.7,01.15,0.508
2016-04-23 01:33:00,1803E-3,5C000400,-0724,0835,12047,024.9,045.3,0.261,767.7,01.15,0.508
2016-04-23 01:34:00,1907E-3,5C000400,-0724,0834,12165,024.9,045.3,0.261,767.6,01.15,0.508
2016-04-23 01:35:00,1752E-3,5C000400,-0724,0835,12100,024.9,045.3,0.261,767.6,01.15,0.508
2016-04-23 01:36:00,1834E-3,5C000400,-0724,0836,12193,024.9,045.3,0.261,767.6,01.15,0.508
2016-04-23 01:37:00,1778E-3,5C000400,-0724,0835,12154,024.9,045.3,0.261,767.6,01.15,0.508
2016-04-23 01:38:00,1844E-3,5C000400,-0724,0834,12103,025.0,045.3,0.261,767.6,01.15,0.508
2016-04-23 01:39:00,1801E-3,5C000400,-0724,0835,11971,025.0,045.3,0.261,767.6,01.15,0.508
2016-04-23 01:40:00,1910E-3,5C000400,-0724,0834,11988,024.9,045.3,0.261,767.6,01.15,0.508
2016-04-23 01:41:00,1822E-3,5C000400,-0724,0835,12097,024.9,045.3,0.261,767.6,01.15,0.508
2016-04-23 01:42:00,1850E-3,5C000400,-0724,0834,12085,025.0,045.3,0.260,767.6,01.15,0.508
2016-04-23 01:43:00,1769E-3,5C000400,-0724,0835,12191,025.0,045.3,0.261,767.6,01.15,0.508
2016-04-23 01:44:00,1774E-3,5C000400,-0724,0835,12191,025.0,045.3,0.261,767.6,01.15,0.508
2016-04-23 01:45:00,1951E-3,5C000400,-0724,0835,12117,025.0,045.3,0.260,767.6,01.15,0.508
2016-04-23 01:46:00,1921E-3,5C000400,-0724,0834,12150,025.0,045.3,0.261,767.6,01.15,0.508
2016-04-23 01:47:00,1794E-3,5C000400,-0724,0835,12027,025.0,045.3,0.261,767.6,01.15,0.508
2016-04-23 01:48:00,1786E-3,5C000400,-0724,0834,12128,025.0,045.3,0.260,767.5,01.15,0.508
2016-04-23 01:49:00,1743E-3,5C000400,-0724,0835,12163,025.0,045.3,0.261,767.5,01.15,0.508
2016-04-23 01:50:00,1764E-3,5C000400,-0724,0834,12240,025.0,045.3,0.261,767.5,01.15,0.508
2016-04-23 01:51:00,1647E-3,5C000400,-0724,0834,12135,025.1,045.4,0.260,767.5,01.15,0.508
2016-04-23 01:52:00,1764E-3,5C000400,-0724,0834,11959,025.1,045.3,0.261,767.5,01.15,0.508
2016-04-23 01:53:00,1812E-3,5C000400,-0724,0835,12258,025.1,045.3,0.261,767.5,01.15,0.508
2016-04-23 01:54:00,2004E-3,5C000400,-0724,0834,12028,025.1,045.4,0.260,767.5,01.15,0.508
2016-04-23 01:55:00,1849E-3,5C000400,-0724,0834,12066,025.1,045.3,0.261,767.5,01.15,0.508
2016-04-23 01:56:00,1804E-3,5C000400,-0724,0835,12144,025.1,045.3,0.261,767.5,01.15,0.508
2016-04-23 01:57:00,1948E-3,5C000400,-0724,0834,12191,025.1,045.3,0.260,767.5,01.15,0.508
2016-04-23 01:58:00,1771E-3,5C000400,-0724,0835,12140,025.2,045.4,0.261,767.5,01.15,0.508
2016-04-23 01:59:00,1852E-3,5C000400,-0724,0835,11995,025.2,045.3,0.261,767.5,01.15,0.508
2016-04-23 02:00:00,1819E-3,5C000400,-0724,0835,12063,025.2,045.3,0.260,767.5,01.15,0.508
2016-04-23 02:01:00,1762E-3,5C000400,-0724,0834,12035,025.2,045.4,0.261,767.5,01.15,0.508
2016-04-23 02:02:00,1823E-3,5C000400,-0724,0835,12180,025.2,045.3,0.260,767.5,01.15,0.508
2016-04-23 02:03:00,1770E-3,5C000400,-0724,0835,12132,025.2,045.4,0.260,767.5,01.15,0.508
2016-04-23 02:04:00,1958E-3,5C000400,-0724,0835,12120,025.2,045.4,0.261,767.5,01.15,0.508
2016-04-23 02:05:00,1790E-3,5C000400,-0724,0834,12106,025.2,045.4,0.260,767.5,01.15,0.508
2016-04-23 02:06:00,1824E-3,5C000400,-0724,0835,12212,025.2,045.3,0.260,767.5,01.15,0.508
2016-04-23 02:07:00,1810E-3,5C000400,-0724,0835,12120,025.3,045.4,0.261,767.5,01.15,0.508
2016-04-23 02:08:00,1910E-3,5C000400,-0724,0834,12120,025.3,045.4,0.260,767.5,01.15,0.508
2016-04-23 02:09:00,1859E-3,5C000400,-0724,0835,12216,025.3,045.4,0.261,767.5,01.15,0.508
2016-04-23 02:10:00,1732E-3,5C000400,-0724,0835,12105,025.3,045.3,0.261,767.4,01.15,0.508
2016-04-23 02:11:00,1844E-3,5C000400,-0724,0835,12200,025.3,045.3,0.260,767.5,01.15,0.508
2016-04-23 02:12:00,1847E-3,5C000400,-0724,0835,12185,025.3,045.3,0.260,767.5,01.15,0.508
2016-04-23 02:13:00,1824E-3,5C000400,-0724,0835,12095,025.3,045.4,0.260,767.5,01.15,0.508
2016-04-23 02:14:00,1800E-3,5C000400,-0724,0835,12136,025.3,045.3,0.260,767.5,01.15,0.508
2016-04-23 02:15:00,1838E-3,5C000400,-0724,0834,12095,025.4,045.4,0.260,767.5,01.15,0.508
2016-04-23 02:16:00,1854E-3,5C000400,-0724,0835,12154,025.3,045.3,0.260,767.5,01.15,0.508
2016-04-23 02:17:00,1805E-3,5C000400,-0724,0835,12073,025.3,045.3,0.260,767.5,01.15,0.508
2016-04-23 02:18:00,1851E-3,5C000400,-0724,0835,12179,025.4,045.3,0.260,767.5,01.15,0.508
2016-04-23 02:19:00,1848E-3,5C000400,-0724,0835,12021,025.4,045.3,0.260,767.5,01.15,0.508
2016-04-23 02:20:00,1704E-3,5C000400,-0724,0835,12164,025.4,045.4,0.260,767.5,01.15,0.508
2016-04-23 02:21:00,1857E-3,5C000400,-0724,0834,12176,025.4,045.4,0.260,767.5,01.15,0.508
2016-04-23 02:22:00,1862E-3,5C000400,-0724,0835,12154,025.4,045.3,0.260,767.5,01.15,0.508
2016-04-23 02:23:00,1865E-3,5C000400,-0724,0835,12124,025.4,045.3,0.260,767.5,01.15,0.508
2016-04-23 02:24:00,1756E-3,5C000400,-0724,0835,12100,025.4,045.4,0.260,767.5,01.15,0.508
2016-04-23 02:25:00,1636E-3,5C000400,-0724,0834,12037,025.4,045.4,0.260,767.5,01.15,0.508
2016-04-23 02:26:00,1839E-3,5C000400,-0724,0835,12198,025.4,045.4,0.260,767.5,01.15,0.508
2016-04-23 02:27:00,1811E-3,5C000400,-0724,0835,12193,025.5,045.3,0.260,767.5,01.15,0.508
2016-04-23 02:28:00,1760E-3,5C000400,-0724,0834,12212,025.5,045.4,0.260,767.5,01.15,0.508
2016-04-23 02:29:00,1864E-3,5C000400,-0724,0835,12120,025.5,045.3,0.260,767.5,01.15,0.508
2016-04-23 02:30:00,1930E-3,5C000400,-0724,0835,12139,025.5,045.4,0.260,767.5,01.15,0.508
2016-04-23 02:31:00,1805E-3,5C000400,-0724,0835,12193,025.5,045.4,0.260,767.5,01.15,0.508
2016-04-23 02:32:00,1825E-3,5C000400,-0724,0835,12310,025.5,045.3,0.260,767.5,01.15,0.508
2016-04-23 02:33:00,1920E-3,5C000400,-0724,0833,12125,025.5,045.3,0.260,767.5,01.15,0.508
2016-04-23 02:34:00,1794E-3,5C000400,-0724,0835,12191,025.6,045.4,0.260,767.5,01.15,0.508
2016-04-23 02:35:00,1888E-3,5C000400,-0724,0835,12022,025.6,045.4,0.260,767.5,01.15,0.508
2016-04-23 02:36:00,1673E-3,5C000400,-0724,0835,12124,025.6,045.4,0.260,767.5,01.15,0.508
2016-04-23 02:37:00,1797E-3,5C000400,-0724,0835,12140,025.6,045.3,0.260,767.5,01.15,0.508
2016-04-23 02:38:00,1835E-3,5C000400,-0724,0835,12106,025.6,045.3,0.260,767.5,01.15,0.508
2016-04-23 02:39:00,1805E-3,5C000400,-0724,0835,12105,025.6,045.3,0.260,767.5,01.15,0.508
2016-04-23 02:40:00,1831E-3,5C000400,-0724,0834,12111,025.6,045.3,0.260,767.5,01.15,0.508
2016-04-23 02:41:00,1742E-3,5C000400,-0724,0834,12180,025.6,045.3,0.260,767.5,01.15,0.508
2016-04-23 02:42:00,1837E-3,5C000400,-0724,0835,12077,025.7,045.4,0.259,767.5,01.15,0.508
2016-04-23 02:43:00,1785E-3,5C000400,-0724,0835,12007,025.7,045.3,0.260,767.5,01.15,0.508
2016-04-23 02:44:00,1937E-3,5C000400,-0724,0834,12175,025.6,045.3,0.260,767.5,01.15,0.508
2016-04-23 02:45:00,1881E-3,5C000400,-0724,0835,12194,025.7,045.3,0.259,767.5,01.15,0.508
2016-04-23 02:46:00,1842E-3,5C000400,-0724,0835,12124,025.7,045.4,0.260,767.5,01.15,0.508
2016-04-23 02:47:00,1773E-3,5C000400,-0724,0835,12026,025.7,045.4,0.260,767.5,01.15,0.508
2016-04-23 02:48:00,1897E-3,5C000400,-0724,0836,12192,025.7,045.3,0.259,767.5,01.15,0.508
2016-04-23 02:49:00,1750E-3,5C000400,-0724,0835,12166,025.7,045.3,0.259,767.5,01.15,0.508
2016-04-23 02:50:00,1870E-3,5C000400,-0724,0835,12253,025.8,045.4,0.260,767.5,01.15,0.508
2016-04-23 02:51:00,1942E-3,5C000400,-0724,0835,11994,025.7,045.4,0.259,767.5,01.15,0.508
2016-04-23 02:52:00,1820E-3,5C000400,-0724,0835,12044,025.7,045.3,0.259,767.5,01.15,0.508
2016-04-23 02:53:00,1843E-3,5C000400,-0724,0835,12134,025.8,045.4,0.260,767.6,01.15,0.508
2016-04-23 02:54:00,1861E-3,5C000400,-0724,0835,12048,025.8,045.4,0.260,767.6,01.15,0.508
2016-04-23 02:55:00,1904E-3,5C000400,-0724,0835,11977,025.8,045.4,0.259,767.6,01.15,0.508
2016-04-23 02:56:00,1870E-3,5C000400,-0724,0835,12112,025.8,045.4,0.259,767.6,01.15,0.508
2016-04-23 02:57:00,1848E-3,5C000400,-0724,0835,12207,025.8,045.4,0.259,767.6,01.15,0.508
2016-04-23 02:58:00,1794E-3,5C000400,-0724,0835,12246,025.8,045.4,0.259,767.6,01.15,0.508
2016-04-23 02:59:00,1825E-3,5C000400,-0724,0834,12070,025.8,045.4,0.259,767.5,01.15,0.508
2016-04-23 03:00:00,1857E-3,5C000400,-0724,0835,12086,025.9,045.3,0.260,767.6,01.15,0.508
2016-04-23 03:01:00,1805E-3,5C000400,-0724,0834,12246,025.8,045.4,0.259,767.5,01.15,0.508
2016-04-23 03:02:00,1764E-3,5C000400,-0724,0835,12194,025.9,045.4,0.259,767.5,01.15,0.508
2016-04-23 03:03:00,1802E-3,5C000400,-0724,0835,12177,025.9,045.4,0.259,767.5,01.15,0.508
2016-04-23 03:04:00,1932E-3,5C000400,-0724,0834,12171,025.9,045.4,0.259,767.5,01.15,0.508
2016-04-23 03:05:00,1906E-3,5C000400,-0724,0835,12164,025.9,045.3,0.259,767.5,01.15,0.508
2016-04-23 03:06:00,1808E-3,5C000400,-0724,0834,12156,025.9,045.3,0.259,767.5,01.15,0.508
2016-04-23 03:07:00,1721E-3,5C000400,-0724,0835,12218,026.0,045.4,0.259,767.5,01.15,0.508
2016-04-23 03:08:00,1796E-3,5C000400,-0724,0835,12126,026.0,045.3,0.259,767.5,01.15,0.508
2016-04-23 03:09:00,1743E-3,5C000400,-0724,0835,12229,026.0,045.4,0.260,767.5,01.15,0.508
2016-04-23 03:10:00,1794E-3,5C000400,-0724,0834,12139,026.0,045.4,0.259,767.5,01.15,0.508
2016-04-23 03:11:00,1730E-3,5C000400,-0724,0835,12159,026.0,045.4,0.259,767.6,01.15,0.508
2016-04-23 03:12:00,1771E-3,5C000400,-0724,0835,12206,026.0,045.4,0.259,767.6,01.15,0.508
2016-04-23 03:13:00,1777E-3,5C000400,-0724,0835,12026,026.0,045.4,0.259,767.6,01.15,0.508
2016-04-23 03:14:00,1818E-3,5C000400,-0724,0834,12109,026.1,045.4,0.259,767.6,01.15,0.508
2016-04-23 03:15:00,1969E-3,5C000400,-0724,0835,12163,026.1,045.4,0.259,767.6,01.15,0.508
2016-04-23 03:16:00,1675E-3,5C000400,-0724,0835,12099,026.0,045.4,0.259,767.6,01.15,0.508
2016-04-23 03:17:00,1896E-3,5C000400,-0724,0835,12066,026.1,045.4,0.259,767.6,01.15,0.508
2016-04-23 03:18:00,1824E-3,5C000400,-0724,0835,12080,026.1,045.4,0.259,767.6,01.15,0.508
2016-04-23 03:19:00,1838E-3,5C000400,-0724,0835,12156,026.1,045.4,0.259,767.6,01.15,0.508
2016-04-23 03:20:00,1795E-3,5C000400,-0724,0835,12113,026.1,045.4,0.259,767.6,01.15,0.508
2016-04-23 03:21:00,1843E-3,5C000400,-0724,0835,12241,026.1,045.4,0.259,767.6,01.15,0.508
2016-04-23 03:22:00,1747E-3,5C000400,-0724,0834,12005,026.1,045.4,0.259,767.6,01.15,0.508
2016-04-23 03:23:00,1721E-3,5C000400,-0724,0835,12186,026.2,045.4,0.259,767.6,01.15,0.508
2016-04-23 03:24:00,1786E-3,5C000400,-0724,0835,12074,026.2,045.4,0.259,767.6,01.15,0.508
2016-04-23 03:25:00,1769E-3,5C000400,-0724,0835,12272,026.2,045.4,0.258,767.6,01.15,0.508
2016-04-23 03:26:00,1934E-3,5C000400,-0724,0835,12084,026.2,045.4,0.259,767.6,01.15,0.508
2016-04-23 03:27:00,1854E-3,5C000400,-0724,0835,12195,026.2,045.3,0.259,767.6,01.15,0.508
2016-04-23 03:28:00,1871E-3,5C000400,-0724,0835,12215,026.2,045.4,0.258,767.5,01.15,0.508
2016-04-23 03:29:00,1869E-3,5C000400,-0724,0835,12143,026.2,045.4,0.259,767.5,01.15,0.508
2016-04-23 03:30:00,1871E-3,5C000400,-0724,0835,12170,026.2,045.4,0.259,767.5,01.15,0.508
2016-04-23 03:31:00,1897E-3,5C000400,-0724,0836,12002,026.2,045.4,0.259,767.5,01.15,0.508
2016-04-23 03:32:00,1818E-3,5C000400,-0724,0836,12092,026.3,045.4,0.258,767.5,01.15,0.508
2016-04-23 03:33:00,1733E-3,5C000400,-0724,0835,12210,026.3,045.4,0.259,767.5,01.15,0.508
2016-04-23 03:34:00,1850E-3,5C000400,-0724,0835,12181,026.3,045.4,0.259,767.6,01.15,0.508
2016-04-23 03:35:00,1880E-3,5C000400,-0724,0835,12097,026.3,045.4,0.258,767.6,01.15,0.508
2016-04-23 03:36:00,1866E-3,5C000400,-0724,0836,12136,026.3,045.4,0.259,767.6,01.15,0.508
2016-04-23 03:37:00,1746E-3,5C000400,-0724,0834,12098,026.3,045.3,0.259,767.6,01.15,0.508
2016-04-23 03:38:00,1958E-3,5C000400,-0724,0835,12144,026.3,045.4,0.258,767.6,01.15,0.508
2016-04-23 03:39:00,1816E-3,5C000400,-0724,0835,12081,026.3,045.4,0.258,767.6,01.15,0.508
2016-04-23 03:40:00,1752E-3,5C000400,-0724,0835,12037,026.4,045.4,0.259,767.6,01.15,0.508
2016-04-23 03:41:00,1787E-3,5C000400,-0724,0835,12181,026.4,045.4,0.259,767.6,01.15,0.508
2016-04-23 03:42:00,1788E-3,5C000400,-0724,0835,12116,026.4,045.4,0.258,767.6,01.15,0.508
2016-04-23 03:43:00,1897E-3,5C000400,-0724,0835,12155,026.4,045.4,0.258,767.5,01.15,0.508
2016-04-23 03:44:00,1865E-3,5C000400,-0724,0835,12096,026.4,045.4,0.259,767.5,01.15,0.508
2016-04-23 03:45:00,1827E-3,5C000400,-0724,0834,12141,026.4,045.4,0.258,767.5,01.15,0.508
2016-04-23 03:46:00,1803E-3,5C000400,-0724,0835,12080,026.4,045.4,0.258,767.6,01.15,0.508
2016-04-23 03:47:00,1797E-3,5C000400,-0724,0835,12205,026.5,045.4,0.258,767.6,01.15,0.508
2016-04-23 03:48:00,1901E-3,5C000400,-0724,0835,12099,026.4,045.4,0.258,767.6,01.15,0.508
2016-04-23 03:49:00,1786E-3,5C000400,-0724,0835,12036,026.5,045.4,0.258,767.6,01.15,0.508
2016-04-23 03:50:00,1859E-3,5C000400,-0724,0836,12134,026.5,045.3,0.258,767.6,01.15,0.508
2016-04-23 03:51:00,1835E-3,5C000400,-0724,0835,12105,026.5,045.4,0.258,767.6,01.15,0.508
2016-04-23 03:52:00,1893E-3,5C000400,-0724,0835,12262,026.5,045.4,0.258,767.6,01.15,0.508
2016-04-23 03:53:00,1802E-3,5C000400,-0724,0835,12118,026.5,045.4,0.258,767.6,01.15,0.508
2016-04-23 03:54:00,1680E-3,5C000400,-0724,0835,12059,026.5,045.4,0.258,767.6,01.15,0.508
2016-04-23 03:55:00,1713E-3,5C000400,-0724,0836,11999,026.5,045.4,0.258,767.6,01.15,0.508
2016-04-23 03:56:00,1785E-3,5C000400,-0724,0835,12093,026.6,045.4,0.258,767.6,01.15,0.508
2016-04-23 03:57:00,1956E-3,5C000400,-0724,0836,12091,026.6,045.4,0.258,767.6,01.15,0.508
2016-04-23 03:58:00,1919E-3,5C000400,-0724,0835,12212,026.6,045.4,0.258,767.6,01.15,0.508
2016-04-23 03:59:00,1843E-3,5C000400,-0724,0835,12187,026.6,045.4,0.258,767.6,01.15,0.508
2016-04-23 04:00:00,1908E-3,5C000400,-0724,0835,12100,026.6,045.4,0.258,767.6,01.15,0.508
2016-04-23 04:01:00,2005E-3,5C000400,-0724,0835,12098,026.6,045.4,0.258,767.6,01.15,0.508
2016-04-23 04:02:00,1739E-3,5C000400,-0724,0835,12204,026.6,045.4,0.258,767.6,01.15,0.508
2016-04-23 04:03:00,1818E-3,5C000400,-0724,0835,12130,026.7,045.4,0.258,767.6,01.15,0.508
2016-04-23 04:04:00,1784E-3,5C000400,-0724,0835,12073,026.7,045.4,0.258,767.6,01.15,0.508
2016-04-23 04:05:00,1775E-3,5C000400,-0724,0835,12157,026.7,045.4,0.258,767.5,01.15,0.508
2016-04-23 04:06:00,1937E-3,5C000400,-0724,0835,12094,026.7,045.4,0.258,767.5,01.15,0.508
2016-04-23 04:07:00,1873E-3,5C000400,-0724,0835,12152,026.7,045.4,0.258,767.5,01.15,0.508
2016-04-23 04:08:00,1667E-3,5C000400,-0724,0835,12135,026.7,045.4,0.258,767.5,01.15,0.508
2016-04-23 04:09:00,1697E-3,5C000400,-0724,0835,12198,026.7,045.4,0.258,767.5,01.15,0.508
2016-04-23 04:10:00,1815E-3,5C000400,-0724,0836,12154,026.7,045.4,0.258,767.5,01.15,0.508
2016-04-23 04:11:00,1809E-3,5C000400,-0724,0835,12101,026.7,045.4,0.258,767.5,01.15,0.508
2016-04-23 04:12:00,1810E-3,5C000400,-0724,0836,12085,026.7,045.4,0.258,767.5,01.15,0.508
2016-04-23 04:13:00,1784E-3,5C000400,-0724,0835,12179,026.7,045.4,0.257,767.5,01.15,0.508
2016-04-23 04:14:00,1950E-3,5C000400,-0724,0836,12236,026.8,045.4,0.258,767.5,01.15,0.508
2016-04-23 04:15:00,1839E-3,5C000400,-0724,0836,12077,026.8,045.4,0.258,767.5,01.15,0.508
2016-04-23 04:16:00,1770E-3,5C000400,-0724,0835,11944,026.8,045.4,0.257,767.5,01.15,0.508
2016-04-23 04:17:00,1865E-3,5C000400,-0724,0836,12091,026.8,045.4,0.258,767.5,01.15,0.508
2016-04-23 04:18:00,1832E-3,5C000400,-0724,0835,12263,026.8,045.4,0.258,767.5,01.15,0.508
2016-04-23 04:19:00,1808E-3,5C000400,-0724,0835,12139,026.8,045.4,0.258,767.5,01.15,0.508
2016-04-23 04:20:00,1753E-3,5C000400,-0724,0835,12072,026.8,045.4,0.257,767.5,01.15,0.508